CST,Max TemperatureF,Mean TemperatureF,Min TemperatureF,Max Dew PointF,MeanDew PointF,Min DewpointF,Max Humidity, Mean Humidity, Min Humidity, Max Sea Level PressureIn, Mean Sea Level PressureIn, Min Sea Level PressureIn, Max VisibilityMiles, Mean VisibilityMiles, Min VisibilityMiles, Max Wind SpeedMPH, Mean Wind SpeedMPH, Max Gust SpeedMPH,PrecipitationIn, CloudCover, Events, WindDirDegrees
2013-1-1,23,14,3,21,12,1,100,84,68,30.24,30.18,30.10,10,8,5,14,9,,0.00,2,,335
2013-1-2,26,14,1,16,8,0,93,78,55,30.25,30.21,30.17,10,9,5,13,4,,0.00,0,,192
2013-1-3,33,22,12,27,20,9,100,81,69,30.36,30.27,30.17,10,9,7,13,9,17,0.01,4,,260
2013-1-4,35,24,12,25,19,10,93,77,56,30.38,30.33,30.29,10,10,10,17,8,22,0.00,0,,228
2013-1-5,39,30,21,28,24,18,86,79,65,30.29,30.20,30.05,10,10,5,15,8,17,0.00,4,Snow,193
2013-1-6,35,26,17,30,22,18,100,79,69,30.36,30.21,30.03,10,9,5,22,12,28,0.00,4,,275
2013-1-7,37,27,17,27,23,18,100,82,60,30.38,30.28,30.15,10,8,5,22,9,25,0.00,0,,175
2013-1-8,46,36,26,34,28,23,93,76,53,30.20,30.14,30.10,10,9,5,14,9,,0.00,1,,172
2013-1-9,51,40,30,36,33,27,93,74,54,30.49,30.35,30.14,10,10,10,14,8,18,0.00,1,,248
2013-1-10,53,42,30,54,37,25,100,86,60,30.47,30.15,29.78,10,6,0,20,10,24,0.33,5,Fog-Rain,113
2013-1-11,57,52,46,55,48,46,100,86,72,29.86,29.80,29.75,10,10,3,22,13,30,0.00,2,Rain,187
2013-1-12,55,42,30,50,40,28,100,87,67,29.96,29.88,29.79,10,8,2,22,13,31,0.48,3,Rain-Snow,308
2013-1-13,28,22,15,28,19,10,100,88,79,30.33,30.09,29.89,10,9,2,12,9,17,0.01,6,Snow,315
2013-1-14,24,19,14,18,13,10,93,82,73,30.47,30.41,30.35,10,10,10,12,5,,0.00,0,,339
2013-1-15,32,22,12,21,17,10,100,84,41,30.41,30.30,30.12,10,10,7,10,4,,0.00,2,,25
2013-1-16,35,26,17,27,22,16,100,78,56,30.13,30.06,29.98,10,9,5,18,6,22,0.01,2,,242
2013-1-17,35,29,21,30,25,19,100,79,60,30.46,30.28,30.10,10,10,5,21,8,23,0.00,2,,321
2013-1-18,42,30,19,30,24,19,100,76,56,30.48,30.29,30.09,10,10,10,25,10,32,0.00,0,,183
2013-1-19,55,44,33,37,32,27,81,66,47,30.09,29.99,29.87,10,10,10,24,16,31,0.00,0,,221
2013-1-20,37,28,19,28,13,9,86,65,50,30.34,30.27,30.08,10,10,10,23,12,29,0.00,3,,325
2013-1-21,19,14,8,12,1,-8,79,58,38,30.36,30.30,30.25,10,10,7,24,14,34,0.00,2,Snow,290
2013-1-22,17,11,5,1,-3,-6,67,55,38,30.45,30.38,30.35,10,10,10,15,7,18,0.00,4,,290
2013-1-23,35,24,12,19,11,1,79,59,44,30.36,30.24,30.12,10,10,10,23,5,28,0.00,2,,251
2013-1-24,24,16,8,9,5,-2,73,57,46,30.61,30.46,30.30,10,10,10,21,14,28,0.00,1,Snow,67
2013-1-25,37,29,21,19,14,3,80,56,40,30.27,30.13,30.06,10,10,10,17,9,23,0.00,4,,227
2013-1-26,33,24,14,19,12,9,80,61,38,30.40,30.32,30.19,10,10,10,14,7,,0.00,0,,28
2013-1-27,42,32,23,43,29,18,100,88,69,30.32,30.14,29.95,10,6,1,23,11,28,0.09,5,Rain,145
2013-1-28,62,52,42,59,52,43,100,97,88,29.96,29.92,29.85,7,4,1,23,14,26,0.06,5,Rain,177
2013-1-29,64,58,51,59,56,52,100,93,77,29.85,29.64,29.43,10,8,3,25,17,47,1.12,5,Rain-Thunderstorm,184
2013-1-30,50,37,23,50,33,12,100,86,63,29.83,29.50,29.33,10,10,4,31,16,39,0.16,8,Rain-Snow,250
2013-1-31,28,17,6,18,11,0,85,70,63,30.30,30.01,29.84,10,10,1,26,17,36,0.00,6,Snow,280